Regional Weather Roundup
Issued by NWS

Home | Current Version | Previous Version | Text Only | Print | Product List | Glossary Off
Versions: 1 2 3 4 5 6 7 8 9 10 11 12 13 14 15 16 17 18 19 20 21 22 23 24 25 26 27 28 29 30 31 32 33 34 35 36 37 38 39 40 41 42 43 44 45 46 47 48 49 50

000
ASUS43 KLSX 211759
RWRMO

WEATHER SUMMARY FOR MISSOURI
NATIONAL WEATHER SERVICE SPRINGFIELD MO
100 PM CDT THU AUG 21 2014

NOTE: "FAIR" INDICATES FEW OR NO CLOUDS BELOW 12,000 FEET WITH NO
       SIGNIFICANT WEATHER AND/OR OBSTRUCTIONS TO VISIBILITY.
       CURRENT SKY AND/OR WEATHER CONDITIONS ARE NOT AVAILABLE FOR
       CHILLICOTHE AND FARMINGTON.

MOZ001>031-035>038-043-044-053-054-211900-
...NORTHERN AND WESTERN MISSOURI...

CITY           SKY/WX    TMP DP  RH WIND       PRES   REMARKS
KANSAS CTY INT CLOUDY    88  74  63 S13       29.91F HX  96
6HR MIN TEMP:  77; 6HR MAX TEMP:  88;

KANSAS C DTWN  PTSUNNY   92  73  53 S16       29.90F HX 100
6HR MIN TEMP:  80; 6HR MAX TEMP:  92;

LEE`S SUMMIT   MOSUNNY   88  72  58 SW15G23   29.94F HX  94
6HR MIN TEMP:  76; 6HR MAX TEMP:  88;

ST JOSEPH      PTSUNNY   87  75  67 S12       29.88F HX  96
6HR MIN TEMP:  76; 6HR MAX TEMP:  88;

KIRKSVILLE     SUNNY     88  74  63 SW10      29.93F HX  96
6HR MIN TEMP:  73; 6HR MAX TEMP:  88;


$$
MOZ066>068-077>081-088>096-101>105-211900-
...SOUTHWEST MISSOURI...

CITY           SKY/WX    TMP DP  RH WIND       PRES   REMARKS
SPRINGFIELD    SUNNY     94  68  42 SW16      30.02F HX  98
6HR MIN TEMP:  73; 6HR MAX TEMP:  94;

JOPLIN         SUNNY     94  71  47 SW14      29.99F HX 101
6HR MIN TEMP:  78; 6HR MAX TEMP:  94;


$$
MOZ032>034-039>042-045>050-055>058-069>072-211900-
...CENTRAL MISSOURI...

CITY           SKY/WX    TMP DP  RH WIND       PRES   REMARKS
COLUMBIA       SUNNY     91  73  55 SW17      29.98F HX  99
6HR MIN TEMP:  71; 6HR MAX TEMP:  91;

JEFFERSON CITY MOSUNNY   91  72  53 SW13G21   29.97S HX  98
6HR MIN TEMP:  72; 6HR MAX TEMP:  91;

ROLLA          MOSUNNY   89  72  56 SW13G18   30.01F HX  96
6HR MIN TEMP:  72; 6HR MAX TEMP:  89;

SEDALIA        MOSUNNY   90  73  57 SW12      29.97F HX  98
6HR MIN TEMP:  77; 6HR MAX TEMP:  90;

OSAGE BEACH    PTSUNNY   91  72  52 SW10      29.99F HX  98

$$
MOZ051-052-059>065-211900-
...EAST CENTRAL MISSOURI...

CITY           SKY/WX    TMP DP  RH WIND       PRES   REMARKS
ST LOUIS INTL  PTSUNNY   92  74  55 SW9       30.00F HX 101
6HR MIN TEMP:  76; 6HR MAX TEMP:  92;

SPIRIT OF STL  PTSUNNY   90  74  59 SW10      29.97F HX  99
6HR MIN TEMP:  74; 6HR MAX TEMP:  90;

ST CHARLES     MOSUNNY   89  73  59 SW7       29.97F HX  97
6HR MIN TEMP:  68; 6HR MAX TEMP:  89;


$$
MOZ072>076-082>087-097>100-106>115-211900-
...SOUTH CENTRAL AND SOUTHEAST MISSOURI...

CITY           SKY/WX    TMP DP  RH WIND       PRES   REMARKS
CAPE GIRARDEAU SUNNY     89  75  63 SW10      30.04F HX  99
6HR MIN TEMP:  75; 6HR MAX TEMP:  90;

FARMINGTON     MOSUNNY   93  70  46 SW13      30.05F HX  99
6HR MIN TEMP:  75; 6HR MAX TEMP:  93;

POPLAR BLUFF   SUNNY     92  72  51 SW9       30.03F HX  99
6HR MIN TEMP:  73; 6HR MAX TEMP:  92;

WEST PLAINS    MOSUNNY   89  70  53 SW9       30.08F HX  94
6HR MIN TEMP:  74; 6HR MAX TEMP:  90;


$$



USA.gov is the U.S. government's official web portal to all federal, state and local government web resources and services.